Location: Kawakawa
(35.3830°S, 174.0670°E)
Time: 19:36:53
(UTC+13:00)

SeaSat 1 - Pass Details

Date: 24 January 2019
Orbit: 744 x 748 km, 108.0° (Epoch: 16 February)

Event Time Altitude Azimuth Distance (km) Brightness Sun altitude
Rises 23:37:56 0° 157° (SSE) 3,217 6.2 -28.7°
Reaches altitude 10° 23:40:12 10° 157° (SSE) 2,286 5.3 -28.9°
Enters shadow 23:44:00 53° 161° (SSE) 923 3.0 -29.3°
